Torna al catalogo

STARLINK-11701

AttivoComunicazioniVLEO
NORAD 63760·PAYLOAD·🇺🇸 United States

Lanciato Apr 29, 2025 da Cape Canaveral Space Force Station

Loading…

Prossimi Passaggi (prossime 24 ore)

TLE

AggiornatoSource: CelesTrak SupGP

Epoca: Sep 14, 2026, 14:11 UTC

1 63760C 25089K   26257.59145833 -.00033084  00000+0 -25700-3 0  2579
2 63760  43.0008 233.2424 0001705 265.1923 283.3115 15.70850837    18

Traccia STARLINK-11701 in tempo reale con AllMySat

Download on the App Store